Regional Weather Roundup
Issued by NWS

Home | Current Version | Previous Version | Graphics & Text | Print | Product List | Glossary On
Versions: 1 2 3 4 5 6 7 8 9 10 11 12 13 14 15 16 17 18 19 20 21 22 23 24 25 26 27 28 29 30 31 32 33 34 35 36 37 38 39 40 41 42 43 44 45 46 47 48 49 50
000
ASUS45 KPSR 031410
RWRAZ

ARIZONA HOURLY REGIONAL WEATHER ROUNDUP
NATIONAL WEATHER SERVICE PHOENIX AZ
700 AM MST SAT DEC 03 2016

NOTE: FAIR INDICATES FEW OR NO CLOUDS BELOW 12,000 FEET WITH NO
SIGNIFICANT WEATHER AND/OR OBSTRUCTIONS TO VISIBILITY.

AZZ001>003-036-031500-
NORTHWEST ARIZONA

CITY           SKY/WX    TMP DP  RH WIND       PRES   REMARKS
BULLHEAD CITY  CLEAR     48  16  27 N22G32    30.16R
KINGMAN        CLEAR     31  12  45 E9        30.14R WCI  23
$$

AZZ004>008-015-016-018-031500-
NORTH CENTRAL ARIZONA

CITY           SKY/WX    TMP DP  RH WIND       PRES   REMARKS
GRAND CANYON   CLEAR     27  12  53 NE12      30.11S WCI  17
PRESCOTT       CLEAR     25  17  72 W5        30.07R WCI  19
FLAGSTAFF      CLEAR     26  14  60 NE17      30.07R WCI  13
PAYSON         CLEAR     32  18  55 N16       30.02R WCI  21
PAGE           CLEAR     28  10  46 CALM      30.19R
$$

AZZ009>014-017-031500-
NORTHEAST ARIZONA

CITY           SKY/WX    TMP DP  RH WIND       PRES   REMARKS
WINSLOW        PTCLDY    24  15  68 NW10      30.15R WCI  14
SAINT JOHNS    PTCLDY    18  15  88 W3        30.08R
WINDOW ROCK    CLEAR     16  11  80 CALM      30.11R
SHOW LOW       PTCLDY    16  14  93 N3        30.08R
$$

AZZ023-031500-
GREATER PHOENIX AREA

CITY           SKY/WX    TMP DP  RH WIND       PRES   REMARKS
PHOENIX        PTCLDY    44  28  53 W3        29.93R
BUCKEYE          N/A     46  23  39 N12       29.98R
LUKE AFB       CLEAR     42  29  59 N5        29.94R
DEER VALLEY    CLEAR     50  21  32 N9        29.94R
SCOTTSDALE     CLEAR     50  22  33 W7        29.94R
MESA-FALCON    CLEAR    N/A N/A N/A N9        29.92R
MESA-GATEWAY   PTCLDY    39  28  65 VRB6      29.93R WCI  35
CHANDLER       CLEAR     48  23  37 N13       29.93R
$$

AZZ027-028-031500-
SOUTHWEST MARICOPA COUNTY AND PINAL COUNTY

CITY           SKY/WX    TMP DP  RH WIND       PRES   REMARKS
CASA GRANDE    NOT AVBL
$$

AZZ503-504-507>509-031500-
SOUTHEAST ARIZONA

CITY           SKY/WX    TMP DP  RH WIND       PRES   REMARKS
TUCSON         CLEAR     40  22  48 CALM      29.93R
DAVIS-MONTHAN  CLEAR     37  24  58 S5        29.91R WCI  34
RYAN FIELD     CLEAR     37  25  60 S5        29.92R WCI  34
NOGALES        CLOUDY    38  34  85 CALM      29.86R
SIERRA VISTA   MOCLDY    39  36  89 SE1       29.89S
DOUGLAS        PTCLDY    36  35  96 SW5       29.90R WCI  32
SAFFORD        PTCLDY    43  37  79 S12       29.92S
$$

AZZ020-021-025-026-031-031500-
SOUTHWEST ARIZONA

CITY           SKY/WX    TMP DP  RH WIND       PRES   REMARKS
YUMA           CLEAR     53  16  23 N13G24    30.03R
$$

CAZ031-033-041-043-047-048-061-031500-
SOUTHERN CALIFORNIA

CITY           SKY/WX    TMP DP  RH WIND       PRES   REMARKS
DOWNTOWN L.A.  CLEAR     43  24  47 CALM      30.11R
L.A. AIRPORT   CLEAR     47  22  37 CALM      30.11R
SAN DIEGO      CLEAR     49  17  28 CALM      30.08R
BURBANK        CLEAR     45  15  30 NW5       30.09R
ONTARIO        PTCLDY    40  19  43 CALM      30.09R
RIVERSIDE      CLEAR     55   8  15 NW7       30.13R
PALM SPRINGS   CLEAR     55   8  15 NW6       30.16R
EL CENTRO NAS  CLEAR     51  15  23 N13       30.10R
IMPERIAL       CLEAR     51  29  42 NW8       30.08R
BLYTHE         CLEAR     49  15  25 N12       30.09R
NEEDLES        CLEAR     50  14  23 N21G28    30.16R
$$

NVZ020-UTZ003-031500-
SOUTHERN NEVADA-UTAH

CITY           SKY/WX    TMP DP  RH WIND       PRES   REMARKS
LAS VEGAS      CLEAR     44   8  23 N16       30.22R
SALT LAKE CITY MOCLDY    28  19  69 E6        30.28R WCI  22
$$

NMZ009-TXZ055-031500-
NEW MEXICO-WEST TEXAS

CITY           SKY/WX    TMP DP  RH WIND       PRES   REMARKS
ALBUQUERQUE    FLURRIES  32  30  92 NW7       30.09S WCI  26
EL PASO        LGT RAIN  40  35  83 N14       29.96R WCI  32
$$


........................KEY........................
SKY/WX - SKY CONDITION/WEATHER
TMP    - TEMPERATURE IN FAHRENHEIT
DP     - DEW POINT IN FAHRENHEIT
RH     - RELATIVE HUMIDITY IN PERCENT
WIND   - DIRECTION AND SPEED IN MILES PER HOUR (MPH)
VRB    - VARIABLE WIND DIRECTION
PRES   - MEAN SEA LEVEL PRESSURE IN INCHES OF MERCURY
         F - FALLING PRESSURE   R - RISING PRESSURE
         S - STEADY PRESSURE
VSB    - VISIBILITY IN MILES
HX     - HEAT INDEX IN FAHRENHEIT
WCI    - WIND CHILL INDEX IN FAHRENHEIT
TC     - TEMPERATURE IN CELSIUS WHICH IS ALSO KNOWN AS
         TEMPERATURE IN CENTIGRADE
AFB    - AIR FORCE BASE
         LUKE AFB IS LUKE AIR FORCE BASE
         DAVIS-MONTHAN IS DAVIS-MONTHAN AIR FORCE BASE
NAS    - NAVAL AIR STATION
         EL CENTRO NAS IS EL CENTRO NAVAL AIR STATION
N/A    - NOT AVAILABLE




USA.gov is the U.S. government's official web portal to all federal, state and local government web resources and services.